Lapse_Rate
4.5 7.4 8.7 8.8 6.5 6.5 6.5 6.5 6.5 6.5 6.5 7.4 7.6 7.0 6.6 7.2 6.5 6.5 5.7 6.4 6.0 8.2 6.9 3.4 3.9 4.7 4.9 4.8 4.4 4.6 5.0 5.4 5.5 6.4 5.9 5.5 5.3 5.2 5.0 5.0 5.1 5.7 5.0 4.9 4.6 4.2 3.9 3.6 3.5
7.9 8.0 8.9 7.8 6.5 6.5 6.5 6.5 6.5 6.5 7.1 7.6 7.6 7.4 7.0 6.5 8.1 8.2 7.8 5.6 5.5 6.5 7.6 4.9 3.2 4.2 4.7 4.8 4.8 4.7 5.0 5.5 5.8 6.0 5.6 5.3 5.2 5.1 4.9 5.1 5.0 5.7 4.4 4.6 4.1 3.6 3.5 3.3 3.3
7.1 7.8 7.7 6.5 6.5 6.5 6.5 6.5 6.5 6.9 7.5 7.4 7.1 7.8 7.5 7.0 8.3 8.6 5.9 5.5 5.6 5.9 6.5 5.8 3.3 3.9 4.2 4.6 4.7 4.8 5.1 5.3 5.7 6.2 6.0 6.6 6.1 5.3 4.2 4.1 4.8 5.3 4.2 4.3 3.9 3.6 3.3 2.9 2.8
9.1 8.7 8.0 6.5 6.5 6.5 6.5 6.5 6.8 6.8 7.3 7.7 7.5 6.5 8.0 8.2 8.5 7.2 5.0 5.4 5.9 6.0 5.6 3.2 2.7 3.8 4.2 4.4 4.5 4.8 5.0 5.2 5.6 6.1 6.2 6.1 6.2 5.3 3.8 3.9 4.0 4.2 4.0 4.1 3.9 3.6 3.2 2.8 2.3
9.1 8.0 6.5 6.5 6.5 6.5 6.5 6.9 7.1 6.5 6.9 7.2 7.5 6.7 7.2 7.6 6.8 5.6 5.5 5.5 5.9 6.5 5.7 4.4 2.2 3.2 3.9 4.2 4.5 4.8 5.2 5.3 5.7 6.0 6.1 5.9 5.6 4.5 3.4 3.7 3.8 4.0 4.0 4.1 4.0 3.4 2.7 2.2 1.7
7.4 7.5 6.5 6.5 6.5 6.5 6.6 7.2 7.1 6.9 7.1 7.2 7.1 7.1 7.4 6.2 5.9 6.0 5.5 5.7 6.2 6.8 5.4 5.4 2.3 2.7 3.3 3.5 3.8 4.3 4.8 5.1 5.8 6.0 5.8 5.2 5.1 4.5 3.4 3.4 3.5 3.6 3.6 3.8 3.4 2.7 2.3 1.9 1.4
6.8 6.5 6.5 6.5 6.5 6.5 6.5 7.5 6.8 6.8 6.9 6.9 7.8 6.5 7.7 7.8 6.5 5.3 5.2 6.0 5.9 7.0 5.5 5.2 4.2 3.2 2.9 3.5 3.6 3.8 4.4 4.8 5.3 5.4 5.0 5.0 4.7 3.8 3.4 3.5 3.6 3.6 3.7 3.4 2.8 2.3 2.0 1.8 1.4
7.7 6.6 6.5 6.5 6.5 6.5 6.7 7.2 7.5 7.2 6.8 7.1 8.2 6.6 6.8 6.9 4.3 4.5 4.9 5.3 5.5 6.0 5.5 5.3 5.6 4.9 4.8 4.4 3.3 3.8 4.2 4.7 5.1 5.0 4.4 4.3 4.1 2.9 2.7 2.7 3.0 3.5 3.5 3.1 2.8 2.3 2.0 1.5 0.9
8.2 6.5 6.5 6.5 6.5 6.5 7.1 6.6 7.6 8.1 7.5 7.8 8.0 8.0 8.4 5.8 4.1 4.6 4.5 4.5 4.8 4.8 5.1 5.2 5.4 6.2 5.7 5.7 4.6 3.6 4.2 4.6 5.0 5.1 4.6 4.1 4.1 3.0 2.7 2.8 2.7 3.1 2.9 2.9 2.5 2.3 1.8 0.9 0.1
6.9 6.5 6.5 6.6 6.6 6.5 6.9 6.9 7.2 7.1 7.1 7.3 7.6 8.2 8.6 8.7 5.8 5.8 6.8 7.4 5.5 4.8 4.3 4.8 5.3 5.3 6.1 7.4 7.9 4.9 4.9 5.3 5.7 6.0 4.8 5.1 4.4 4.5 4.2 3.3 2.2 3.0 2.6 2.5 2.4 1.7 0.7 0.3 3.0
6.9 6.5 6.5 6.8 7.2 7.3 6.9 7.0 7.6 7.0 6.5 7.2 7.2 7.8 8.3 8.4 8.4 8.3 8.4 8.6 8.8 8.1 7.4 4.5 4.9 5.1 5.8 6.0 6.5 6.2 4.1 4.4 6.1 6.6 6.4 5.1 4.9 4.7 3.8 3.4 2.7 2.7 2.2 2.6 2.1 0.9 2.0 3.5 4.0
6.5 6.9 7.1 7.0 7.3 7.1 6.8 7.4 6.9 7.2 7.3 8.0 8.1 8.3 8.3 8.2 8.2 8.4 8.4 8.6 8.8 8.9 9.1 7.1 4.7 4.7 5.0 5.4 5.9 6.1 6.2 4.5 5.8 7.0 7.4 5.4 5.3 3.9 3.2 3.5 3.4 3.4 2.6 3.4 2.9 2.4 2.6 2.4 2.5
6.5 6.7 7.2 7.4 7.3 7.3 7.4 6.9 6.8 7.1 8.0 8.3 8.3 8.2 8.1 8.2 8.3 8.6 8.7 8.6 7.7 7.0 7.3 7.0 4.9 4.3 4.5 4.6 5.3 5.1 6.0 6.4 6.1 6.9 6.3 4.4 3.9 3.3 3.5 3.9 3.8 3.6 2.8 3.2 2.3 2.4 2.0 2.3 2.5
7.0 7.0 7.0 7.3 7.2 7.3 6.7 6.9 7.1 7.3 8.0 7.9 7.9 8.0 8.2 8.2 8.4 8.5 8.6 8.4 7.0 5.4 5.7 6.2 5.8 4.1 4.6 4.4 4.2 4.8 5.5 6.4 6.3 6.4 5.3 3.6 3.6 3.5 3.4 3.4 3.6 3.2 2.9 2.6 2.7 2.9 2.8 2.6 2.4
7.2 6.5 6.5 6.7 7.0 6.6 7.1 6.5 6.5 7.5 7.8 7.5 7.7 7.9 8.0 8.2 8.5 8.4 8.6 8.5 8.8 7.9 5.7 5.3 5.3 4.5 3.7 3.5 3.8 4.8 5.2 5.5 6.4 5.9 5.2 3.4 3.8 3.7 3.6 3.3 3.3 3.4 2.5 2.6 2.9 2.9 3.1 3.0 2.9
6.5 6.5 6.5 6.5 6.6 6.8 6.8 6.5 6.5 7.5 7.4 7.3 7.6 7.9 8.0 8.1 8.4 8.6 8.8 8.9 9.0 9.1 9.0 7.7 5.7 5.3 4.2 3.7 3.4 4.0 5.3 5.7 6.5 6.4 5.7 4.3 3.9 4.3 3.6 3.2 3.0 2.8 1.9 2.0 2.4 2.6 2.9 3.5 3.5
6.5 6.5 6.5 6.5 6.7 6.5 6.5 6.5 6.6 7.5 7.4 7.2 7.6 7.6 7.8 7.9 8.3 8.6 8.8 8.9 9.0 9.2 9.2 9.1 8.5 7.0 5.5 5.3 6.1 5.8 5.7 6.2 6.1 6.9 6.7 5.2 3.5 3.9 4.2 4.0 3.3 2.6 1.7 1.9 2.6 2.7 3.2 3.4 3.6
6.5 6.5 6.5 6.5 6.5 6.5 6.5 6.5 6.5 7.2 7.2 7.1 7.4 7.5 7.7 7.8 8.0 8.5 8.8 8.5 8.3 8.3 8.6 8.6 8.5 8.6 6.8 6.2 6.5 7.5 7.3 7.2 8.2 7.9 7.7 6.9 5.0 4.1 4.5 4.3 3.6 2.7 1.9 2.3 2.7 2.9 3.4 3.8 3.7
6.5 6.5 6.5 6.5 6.5 6.5 6.5 6.5 6.5 6.9 7.1 7.0 7.2 7.4 7.5 7.7 8.3 8.6 8.1 6.8 5.8 4.6 4.4 5.6 5.9 7.3 6.8 7.6 7.3 7.5 7.8 7.9 8.1 8.5 8.8 8.4 6.8 4.8 4.2 4.2 3.9 2.4 2.2 2.3 2.6 2.8 3.0 3.8 3.7
6.5 6.5 6.5 6.5 6.5 6.5 6.5 6.5 6.5 6.5 6.7 7.0 7.1 7.2 7.4 7.8 8.1 8.3 6.7 3.9 2.6 2.4 2.2 2.7 3.7 6.4 8.0 6.8 8.0 9.0 9.3 9.3 9.4 9.2 8.8 8.7 7.7 6.1 4.9 4.2 3.7 2.3 2.2 2.5 2.6 2.8 2.3 3.9 3.1
6.5 6.5 6.5 6.5 6.5 6.5 6.5 6.5 6.5 6.5 6.8 7.0 7.3 7.6 7.8 7.8 7.9 8.2 7.6 4.9 2.2 1.3 1.7 3.5 4.2 4.7 6.5 7.2 8.4 8.4 7.2 7.8 8.6 9.0 8.8 8.3 7.7 7.1 5.7 4.6 4.3 2.7 2.2 1.9 1.7 2.3 2.4 2.6 2.3
6.5 6.5 6.5 6.5 6.5 6.5 6.5 6.5 6.5 6.5 6.5 6.5 6.9 7.3 7.6 7.8 8.1 8.2 8.0 5.6 3.4 3.2 3.1 3.3 3.1 3.7 4.2 5.5 6.8 7.2 8.9 8.4 9.0 9.2 9.1 8.5 7.4 6.8 6.7 5.8 5.0 3.5 2.5 2.8 2.0 2.3 2.8 3.5 2.1
6.5 6.5 6.5 6.5 6.5 6.5 6.5 6.5 6.5 6.5 6.5 6.5 6.7 7.2 7.6 7.9 8.0 8.0 7.8 5.9 4.7 3.5 3.0 3.8 2.9 1.8 2.2 4.2 5.6 6.8 7.3 8.0 9.0 9.0 7.6 7.9 7.1 5.5 5.6 6.1 6.6 6.4 4.4 2.8 1.9 1.5 1.9 3.6 3.8
6.5 6.5 6.5 6.5 6.5 6.5 6.5 6.5 6.5 6.5 6.5 6.5 6.7 7.3 7.6 7.9 8.0 8.2 8.1 7.8 6.5 5.2 4.6 4.4 4.2 3.6 3.2 3.3 3.9 5.1 6.1 6.4 7.4 8.8 7.6 7.7 6.2 5.7 4.7 5.2 6.4 7.1 6.3 4.6 3.1 1.9 1.8 2.4 3.4
6.5 6.5 6.5 6.5 6.5 6.5 6.5 6.5 6.5 6.5 6.5 6.5 6.6 7.2 7.6 7.9 8.0 8.2 8.3 8.4 8.6 7.9 6.6 4.5 3.4 2.7 3.5 3.9 3.9 4.0 4.2 5.4 6.5 6.9 7.2 8.5 8.5 7.7 6.0 5.7 5.0 5.5 6.5 5.9 5.0 3.3 2.1 2.0 2.7
6.5 6.5 6.5 6.5 6.5 6.5 6.5 6.5 6.5 6.5 6.9 7.1 7.3 7.5 7.7 7.8 8.1 8.1 8.3 8.5 8.5 7.4 5.5 5.1 3.9 3.6 3.3 3.3 3.9 4.4 4.1 4.0 4.9 5.9 6.1 6.3 7.7 8.5 8.1 7.0 5.8 5.1 5.5 6.8 6.1 4.8 3.4 2.8 2.9
6.5 6.5 6.5 6.5 6.5 6.5 6.5 6.5 6.5 6.5 6.5 6.8 7.0 7.3 7.4 7.7 8.0 8.1 8.4 8.5 8.5 8.5 8.4 7.5 5.5 4.6 4.2 4.2 3.9 3.9 3.6 3.7 4.2 4.2 4.8 5.7 6.2 6.9 6.5 6.6 6.3 5.9 5.4 5.3 6.1 5.5 4.6 3.2 2.4
6.5 6.5 6.5 6.5 6.5 6.5 6.5 6.5 6.5 6.5 6.5 6.5 6.6 7.0 7.4 7.7 7.9 8.1 8.3 8.4 8.4 8.1 7.9 6.7 6.4 5.3 5.0 4.5 4.3 4.6 3.9 3.8 3.9 3.6 3.2 3.6 3.9 4.8 5.4 5.0 5.3 5.2 5.5 5.4 4.6 4.9 4.5 3.9 3.5
6.5 6.5 6.5 6.5 6.5 6.5 6.5 6.5 6.5 6.5 6.5 6.5 6.6 7.2 7.4 7.6 7.8 8.1 8.3 8.6 8.5 7.8 7.0 6.2 5.7 5.5 5.2 4.9 4.7 4.7 4.6 4.3 4.0 3.4 3.3 3.1 3.0 3.4 3.3 4.0 3.8 4.0 4.4 5.2 5.8 5.1 4.8 4.2 3.8
6.5 6.5 6.5 6.5 6.5 6.5 6.5 6.5 6.5 6.5 6.5 6.8 6.9 7.3 7.5 7.8 7.9 8.2 8.3 8.4 8.0 7.0 6.3 6.3 6.0 5.5 5.3 5.4 5.2 5.0 4.8 4.5 4.1 3.8 3.3 2.4 2.5 2.9 3.1 3.0 2.9 3.2 3.7 4.4 4.6 4.6 4.4 4.9 5.0
Wind_Speed
6 6 5 5 6 3 3 3 4 3 2 4 3 6 10 10 8 4 3 5 2 13 19 22 18 19 17 16 16 14 12 12 12 14 13 12 11 11 10 10 11 10 10 9 8 7 6 7 7
3 4 5 4 5 5 6 4 0 6 6 4 5 6 6 5 3 1 3 7 6 13 17 21 19 18 18 16 16 15 14 13 13 13 13 12 10 9 9 7 7 7 9 9 9 8 7 7 6
5 4 4 3 4 6 5 3 4 5 4 4 4 2 7 3 1 3 4 8 9 13 16 19 20 17 18 17 16 15 13 12 13 14 12 12 11 10 7 6 2 5 7 6 7 6 6 6 5
4 4 4 5 6 6 4 8 8 7 2 1 4 8 3 3 2 4 2 9 9 12 16 18 22 16 17 16 16 15 14 13 13 15 14 13 10 8 5 2 3 5 6 5 5 6 6 5 5
4 3 4 4 7 3 4 5 5 6 3 2 2 4 6 4 3 3 4 8 9 11 15 16 19 17 17 17 17 15 14 14 16 16 14 13 11 7 5 5 5 6 6 6 6 6 5 6 6
4 3 5 6 4 4 2 2 4 4 2 1 4 8 5 6 4 5 5 8 9 11 14 16 18 16 16 17 18 17 16 15 17 17 13 11 10 8 8 7 7 7 6 6 7 6 6 6 6
5 5 8 8 9 6 0 0 4 4 5 6 3 7 5 7 4 3 6 7 9 10 12 15 18 18 17 19 19 18 17 19 18 16 13 9 9 8 9 8 8 8 7 8 8 7 7 6 6
4 3 6 4 6 8 3 2 4 7 11 2 3 5 5 8 5 3 4 7 9 11 13 12 16 19 19 17 18 19 19 19 19 19 15 13 11 11 10 8 8 8 8 8 8 8 8 7 6
2 5 7 8 7 2 4 6 5 5 10 13 8 13 14 3 1 4 6 8 9 11 13 13 13 18 20 19 19 18 17 18 18 19 18 15 11 13 13 13 12 11 11 10 10 9 8 8 7
6 8 9 6 9 9 11 10 11 11 13 18 15 16 13 12 9 11 11 11 13 14 14 14 15 14 18 17 18 20 16 17 17 17 16 15 15 14 15 14 12 12 13 11 11 10 9 7 5
5 9 12 12 12 14 13 14 15 13 17 16 13 13 14 14 11 14 15 15 14 15 12 15 15 16 14 11 14 13 17 16 18 20 17 16 15 13 11 11 12 13 13 12 11 9 8 3 2
9 13 14 16 10 7 14 17 14 15 22 20 20 19 18 16 16 14 15 14 13 13 15 16 17 15 14 13 10 12 10 15 14 17 19 14 11 11 11 10 13 13 13 11 10 7 5 5 3
14 14 15 13 15 14 17 21 19 22 22 23 21 18 16 16 17 15 13 12 12 15 15 15 16 16 14 14 10 11 10 11 16 16 19 18 13 9 12 12 13 12 13 10 9 8 8 6 5
12 12 16 18 17 16 17 22 16 23 16 15 14 16 16 16 16 12 10 12 13 14 14 14 15 16 16 14 15 11 11 14 16 15 17 22 16 12 11 9 10 12 13 12 10 8 7 6 6
9 13 16 20 20 12 6 16 14 18 13 11 17 17 18 19 16 15 16 15 15 12 13 13 15 15 17 17 14 11 10 14 10 14 19 21 20 16 13 8 8 11 12 12 10 9 8 5 6
10 13 13 6 3 2 7 15 18 7 9 17 20 23 20 21 19 16 16 17 13 12 11 11 10 13 16 15 13 10 10 10 10 14 16 19 20 18 15 9 9 14 14 13 8 7 6 6 5
13 14 18 15 11 2 11 13 14 20 21 24 24 21 18 18 16 10 12 12 13 10 11 9 10 12 13 13 11 11 12 10 10 13 14 18 20 19 14 8 10 16 12 8 8 8 8 7 6
17 19 20 15 17 14 17 22 20 21 21 24 23 20 16 12 10 13 16 14 12 11 10 7 6 8 10 9 9 8 8 8 10 9 11 16 16 18 15 10 10 13 7 8 8 9 7 7 7
20 21 23 21 20 22 21 21 20 20 23 23 19 15 8 5 14 14 16 17 17 16 15 12 7 5 5 7 7 7 8 7 8 8 12 14 15 18 16 8 9 11 8 9 9 7 9 6 7
18 21 21 20 17 13 17 21 25 22 19 14 12 10 4 11 14 15 17 19 20 19 18 15 11 7 2 5 4 5 5 7 7 6 8 13 14 15 13 11 11 12 9 10 10 10 7 5 9
18 19 22 22 18 17 13 15 12 10 19 10 7 12 16 14 14 14 16 17 16 17 18 16 14 10 6 3 3 3 4 3 5 5 6 6 12 13 15 14 11 12 11 11 13 12 13 7 9
15 12 7 12 9 10 7 11 11 17 12 9 13 14 14 14 14 13 15 17 18 17 14 15 15 14 11 7 3 4 4 5 4 5 4 5 9 11 15 15 13 13 11 12 11 11 11 9 8
8 2 7 8 11 16 14 9 5 15 8 13 12 12 12 13 13 15 17 17 16 15 15 15 16 16 15 13 8 5 4 5 5 2 2 5 6 10 13 15 12 11 10 12 14 14 14 10 8
6 7 14 13 8 8 6 6 4 4 5 12 10 10 11 11 12 13 12 12 12 12 12 13 15 17 16 14 12 10 9 7 5 5 4 3 5 6 10 11 10 11 11 12 11 13 15 13 11
6 8 7 8 8 13 5 6 9 6 3 5 10 8 9 10 10 11 11 10 10 12 11 13 16 18 17 16 14 12 10 10 9 7 5 5 5 4 7 9 11 10 12 11 11 12 13 15 12
10 9 7 10 14 16 8 12 10 5 12 12 10 10 9 8 8 8 9 9 10 12 15 15 15 15 15 15 15 14 14 8 7 8 8 6 6 4 6 7 9 11 12 12 11 9 10 11 11
5 7 8 6 11 8 14 23 18 12 12 9 10 9 8 7 6 8 10 12 12 12 13 13 14 14 14 13 11 11 11 11 10 11 9 7 8 7 6 6 8 10 11 12 12 9 11 11 12
6 5 7 4 5 15 12 18 13 7 12 10 7 7 6 8 10 10 11 10 10 10 11 14 14 14 13 12 11 10 10 11 10 9 10 9 8 9 10 7 7 8 10 11 11 10 10 11 10
10 10 11 12 11 13 16 13 8 9 8 7 7 7 7 8 8 8 7 8 9 10 12 13 13 13 12 11 10 10 9 10 9 9 9 10 10 9 9 8 7 6 8 10 11 11 11 13 13
14 15 16 12 9 11 13 12 10 8 7 5 4 5 5 5 6 6 5 7 9 10 11 11 10 10 10 10 9 9 9 9 9 9 10 10 10 10 9 9 7 6 8 9 10 12 10 12 13
Wind_Direction
255 278 288 261 262 230 271 90 343 333 313 29 320 309 334 313 308 2 134 180 197 165 161 172 175 173 172 169 165 162 164 168 167 156 150 142 138 129 122 116 121 118 111 105 98 97 91 85 69
293 288 242 286 263 264 84 65 337 24 3 324 292 269 271 307 356 319 207 170 175 166 169 180 177 174 173 171 167 167 170 172 172 162 160 156 147 134 124 117 120 126 104 99 100 93 88 81 75
256 263 271 289 292 345 4 51 18 334 319 280 299 247 309 321 33 1 61 159 170 169 177 184 172 180 176 176 173 174 178 182 183 169 166 158 148 136 106 95 99 132 102 110 103 98 91 82 70
247 199 213 259 309 324 286 325 342 311 114 221 309 279 189 302 340 45 77 159 177 173 182 158 169 183 181 183 182 183 185 190 190 167 165 163 146 140 94 200 146 126 136 120 109 112 106 92 74
234 246 259 253 286 285 307 305 312 299 307 263 243 295 291 143 135 152 156 174 184 181 188 168 174 188 186 186 189 190 193 195 180 169 171 169 161 168 176 188 169 153 148 144 134 117 109 96 82
233 290 249 272 338 325 321 356 286 278 307 253 251 282 294 112 168 180 187 191 196 189 190 195 186 195 195 190 190 193 196 194 185 175 172 159 155 185 198 191 179 170 164 154 142 135 122 109 94
285 269 288 300 295 292 282 214 249 336 290 289 310 284 299 181 151 160 193 201 200 200 192 199 190 199 205 202 200 197 194 189 184 169 165 163 172 196 196 196 187 182 174 160 151 140 132 120 105
279 270 272 250 299 304 149 203 308 292 307 20 296 256 283 89 120 173 204 210 203 207 196 201 200 197 202 201 195 193 190 187 182 175 169 169 167 184 182 186 190 190 174 163 155 149 140 128 119
278 255 266 271 277 309 142 277 148 289 274 273 244 276 302 58 202 213 214 220 214 210 207 205 205 204 205 206 198 195 195 194 190 184 177 175 191 195 191 199 182 188 171 170 164 156 145 133 120
236 252 280 285 289 281 302 289 288 283 270 272 268 248 255 248 254 252 237 235 220 219 211 210 208 209 206 208 204 202 204 208 204 200 186 192 197 202 202 190 177 182 162 171 170 157 150 195 160
220 252 278 288 280 291 286 288 280 260 271 270 292 297 302 290 256 257 259 253 246 221 219 215 213 210 210 209 205 199 204 209 213 209 200 200 197 195 191 180 184 176 165 179 173 166 190 171 162
257 250 269 281 300 284 277 288 273 263 269 288 286 291 293 282 273 263 265 259 255 246 222 212 216 212 210 210 207 210 206 199 214 209 199 199 195 187 190 189 187 185 180 188 179 179 162 161 136
247 269 275 280 277 269 279 271 273 274 282 281 286 284 277 273 272 271 266 264 252 245 230 217 204 212 211 207 207 211 210 202 207 204 197 193 193 190 191 193 185 183 179 184 177 176 172 159 151
311 298 284 278 274 270 267 276 285 274 277 282 286 286 283 275 279 274 265 263 248 241 237 224 216 210 210 213 215 210 212 208 207 202 198 197 196 190 188 188 189 187 183 180 181 177 170 165 152
284 293 293 281 265 244 268 277 241 267 269 270 284 281 293 294 280 263 268 264 270 247 235 228 221 211 214 211 213 218 211 209 206 206 199 196 204 194 189 187 185 188 179 177 174 170 165 157 159
272 273 277 293 11 126 196 278 293 350 318 293 284 289 292 289 288 291 291 292 277 272 242 231 226 224 217 220 213 212 214 209 214 206 200 199 206 201 193 189 188 183 176 179 177 173 171 172 172
244 268 278 295 297 193 213 277 292 306 297 289 286 287 294 297 307 334 346 334 324 299 282 256 230 228 230 228 227 218 219 215 210 210 206 202 200 204 197 195 189 181 180 185 181 177 177 172 174
285 292 296 286 295 263 272 279 286 288 290 277 280 287 291 301 3 29 23 12 6 356 336 314 286 243 236 233 232 227 222 220 221 219 214 205 202 202 201 196 186 180 185 187 185 179 184 173 162
277 284 285 285 297 296 298 297 298 289 281 279 282 287 296 23 66 45 38 29 24 24 14 2 336 274 229 232 228 228 231 217 223 224 221 215 204 201 202 196 186 179 189 192 185 174 174 174 152
278 281 282 288 296 311 291 295 292 290 278 284 296 313 58 90 57 41 32 28 25 19 16 16 11 346 274 255 248 258 245 236 234 231 229 217 214 205 204 201 191 180 184 191 189 182 170 178 176
272 283 291 296 309 292 297 284 292 255 289 300 354 92 72 56 49 39 35 34 29 27 20 20 20 27 22 356 302 265 283 356 279 238 242 222 228 212 209 206 203 189 188 188 185 187 184 176 193
274 283 296 295 302 300 15 298 291 276 263 70 102 76 74 56 44 43 38 34 31 25 23 38 38 34 33 27 22 338 289 274 259 261 263 237 224 230 223 219 215 200 193 195 191 187 191 187 187
264 304 284 278 269 287 277 261 273 279 268 111 93 79 66 68 57 44 35 32 29 29 25 28 35 42 38 27 18 5 327 297 299 307 318 225 234 231 236 225 229 221 211 201 188 187 193 200 196
346 278 265 260 265 265 296 269 290 20 0 123 115 94 75 64 63 60 52 40 35 37 37 35 44 43 36 32 28 14 347 332 322 309 291 244 231 228 234 237 233 227 220 215 204 196 195 198 197
228 277 295 274 255 267 232 278 264 322 168 139 126 91 71 64 58 54 54 50 40 34 35 43 37 39 32 27 27 19 9 346 329 322 299 288 269 243 245 234 228 231 228 221 217 209 204 202 203
282 263 264 287 284 294 288 269 248 353 116 124 125 117 96 70 56 55 52 47 44 34 32 34 42 41 33 31 21 19 16 6 346 337 324 312 301 280 260 253 238 229 233 230 222 218 214 212 214
285 243 286 288 277 282 264 269 273 232 154 135 118 106 88 81 55 32 34 35 27 31 35 34 37 35 31 26 24 22 18 14 5 353 339 327 317 308 298 274 246 243 236 230 223 222 223 219 211
235 346 265 221 254 261 262 273 271 260 171 145 116 88 62 39 37 30 24 24 24 25 23 30 33 31 23 21 21 16 17 12 8 1 2 347 331 321 307 289 274 242 245 241 227 223 223 222 223
258 254 242 266 249 260 268 267 22 42 89 112 77 48 31 28 24 26 24 16 18 25 27 29 21 17 14 15 11 8 11 8 6 5 2 354 344 333 317 305 288 267 251 238 238 236 231 226 227
295 269 275 256 251 248 263 259 3 84 86 78 45 1 358 8 9 14 14 25 21 14 17 19 15 14 5 0 0 6 5 3 5 359 354 352 347 340 334 319 295 273 269 259 244 238 232 238 234